FW4219 Weather Reports


Display with metric or nautical units.
time (UTC)temp
F
wind
direction
speed
MPH
gust
MPH
rain 1hr
in
rain 24hr
in
rain mn
in
humidity
%
barometer
mb
20260906110718 71 90 0.0 0.0 0.00 0.00 0.00 100 1020.9
20260906102722 72 90 0.0 0.0 0.00 0.00 0.00 100 1020.2
20260906101818 72 90 0.0 3.0 0.00 0.00 0.00 100 1020.1
20260906100820 72 90 0.0 1.0 0.00 0.00 0.00 100 1020.2
20260906100719 72 71 1.0 3.0 0.00 0.00 0.00 100 1020.2
20260906095720 72 340 0.0 1.0 0.00 0.00 0.00 100 1020.0
20260906094720 73 22 0.0 0.0 0.00 0.00 0.00 100 1019.9
20260906093719 73 360 0.0 2.0 0.00 0.00 0.00 100 1019.9
20260906092720 73 34 0.0 5.0 0.00 0.00 0.00 100 1019.9
20260906092621 73 22 0.0 0.0 0.00 0.00 0.00 100 1019.9
20260906090720 73 90 0.0 1.0 0.00 0.00 0.00 100 1019.9
20260906085720 73 90 0.0 0.0 0.00 0.00 0.00 100 1019.9
20260906084719 73 88 0.0 2.0 0.00 0.00 0.00 100 1019.9
20260906083720 73 45 0.0 1.0 0.00 0.00 0.00 100 1019.9
20260906082719 73 67 0.0 0.0 0.00 0.00 0.00 100 1019.9
20260906081722 73 58 0.0 2.0 0.00 0.00 0.00 100 1019.9
20260906080721 73 90 0.0 0.0 0.00 0.00 0.00 100 1019.9
20260906075820 73 90 0.0 2.0 0.00 0.00 0.00 100 1020.1
20260906074818 73 360 0.0 0.0 0.00 0.00 0.00 100 1019.9
20260906073821 74 360 0.0 0.0 0.00 0.00 0.00 100 1019.9
20260906072820 74 90 0.0 2.0 0.00 0.00 0.00 100 1019.9
20260906071819 74 98 1.0 3.0 0.00 0.00 0.00 100 1020.2
20260906065919 73 112 1.0 4.0 0.00 0.00 0.00 100 1019.9
20260906064918 73 135 0.0 1.0 0.00 0.00 0.00 100 1020.2
20260906063919 73 24 0.0 3.0 0.00 0.00 0.00 100 1020.0
20260906062920 73 360 0.0 3.0 0.00 0.00 0.00 100 1020.2
20260906062018 73 360 1.0 2.0 0.00 0.00 0.00 100 1019.9
20260906061021 74 2 3.0 9.0 0.00 0.00 0.00 100 1020.0
20260906055119 73 20 0.0 3.0 0.00 0.00 0.00 100 1020.2
20260906054118 74 9 3.0 6.0 0.00 0.00 0.00 100 1019.9
20260906053120 73 30 1.0 4.0 0.00 0.00 0.00 100 1019.9
20260906051120 73 67 1.0 3.0 0.00 0.00 0.00 100 1019.6
20260906050119 73 56 2.0 7.0 0.00 0.00 0.00 100 1019.9
20260906045128 73 360 0.0 0.0 0.00 0.00 0.00 100 1019.8
20260906044227 73 360 0.0 2.0 0.00 0.00 0.00 100 1019.6
20260906044129 73 360 0.0 2.0 0.00 0.00 0.00 100 1019.6
20260906043227 73 83 1.0 3.0 0.00 0.00 0.00 100 1019.3
20260906042231 73 48 1.0 3.0 0.00 0.00 0.00 100 1019.2
20260906041229 73 56 1.0 3.0 0.00 0.00 0.00 100 1019.2
20260906040229 73 45 0.0 2.0 0.00 0.00 0.00 100 1019.2
20260906035127 73 34 0.0 4.0 0.00 0.00 0.00 100 1019.2
20260906034127 73 11 1.0 6.0 0.00 0.00 0.00 100 1019.2
20260906033127 73 39 1.0 4.0 0.00 0.00 0.00 100 1019.2
20260906031128 73 60 2.0 4.0 0.00 0.00 0.00 100 1019.2
20260906030127 74 67 0.0 2.0 0.00 0.00 0.00 100 1019.2
20260906025128 74 90 0.0 2.0 0.00 0.00 0.00 100 1019.2
20260906024129 74 19 2.0 7.0 0.00 0.00 0.00 100 1018.9
20260906023129 74 1 2.0 9.0 0.00 0.00 0.00 100 1018.9
20260906022128 74 56 1.0 3.0 0.00 0.00 0.00 100 1019.0
20260906021129 74 93 2.0 4.0 0.00 0.00 0.00 100 1019.2
20260906021029 74 64 1.0 3.0 0.00 0.00 0.00 100 1019.2
20260906020128 74 70 2.0 5.0 0.00 0.00 0.00 100 1019.2
20260906015128 74 3 3.0 6.0 0.00 0.00 0.00 100 1019.2
20260906014127 73 29 2.0 8.0 0.00 0.00 0.00 100 1019.2
20260906013128 73 72 1.0 6.0 0.00 0.00 0.00 100 1019.2
20260906011227 73 12 3.0 7.0 0.00 0.00 0.00 100 1018.9
20260906010229 73 20 2.0 6.0 0.00 0.00 0.00 100 1018.6
20260906010128 73 27 0.0 2.0 0.00 0.00 0.00 100 1018.8
20260906004226 73 16 3.0 8.0 0.00 0.00 0.00 100 1018.5
20260906003228 73 11 4.0 11.0 0.00 0.00 0.00 100 1018.2
20260906002327 73 31 4.0 10.0 0.00 0.00 0.00 100 1018.4
20260906002228 73 29 6.0 14.0 0.00 0.00 0.00 100 1018.3
20260906000227 73 25 3.0 10.0 0.00 0.00 0.00 100 1018.5
20260905235228 73 25 2.0 5.0 0.00 0.00 0.00 100 1018.5
20260905234127 73 25 3.0 11.0 0.00 0.00 0.00 100 1018.5
20260905233129 73 21 6.0 18.0 0.00 0.00 0.00 100 1018.5
20260905225127 76 3 9.0 16.0 0.00 0.00 0.00 100 1017.9
20260905224129 76 11 4.0 8.0 0.00 0.00 0.00 100 1018.2
20260905222128 77 7 7.0 13.0 0.00 0.00 0.00 100 1017.9
20260905221130 77 19 6.0 12.0 0.00 0.00 0.00 100 1017.9
20260905215144 79 12 5.0 9.0 0.00 0.00 0.00 100 1017.8
20260905214226 79 346 3.0 10.0 0.00 0.00 0.00 100 1017.5
20260905214128 79 8 2.0 6.0 0.00 0.00 0.00 100 1017.5
20260905213127 79 354 5.0 10.0 0.00 0.00 0.00 100 1017.5
20260905212127 79 4 5.0 11.0 0.00 0.00 0.00 100 1017.2
20260905211129 79 10 7.0 15.0 0.00 0.00 0.00 100 1017.2
20260905210128 79 295 1.0 2.0 0.00 0.00 0.00 100 1017.5
20260905205228 79 19 4.0 13.0 0.00 0.00 0.00 100 1017.5
20260905204231 79 18 1.0 6.0 0.00 0.00 0.00 100 1017.5
20260905203229 79 350 5.0 8.0 0.00 0.00 0.00 100 1017.5
20260905202227 79 339 4.0 8.0 0.00 0.00 0.00 100 1017.5
20260905201326 79 28 3.0 9.0 0.00 0.00 0.00 100 1017.5
20260905195329 79 357 6.0 11.0 0.00 0.00 0.00 100 1017.5
20260905194326 80 16 8.0 14.0 0.00 0.00 0.00 100 1017.5
20260905194230 80 47 3.0 10.0 0.00 0.00 0.00 100 1017.5
20260905193229 80 69 2.0 9.0 0.00 0.00 0.00 100 1017.5
20260905192228 80 29 1.0 4.0 0.00 0.00 0.00 100 1017.9
20260905191227 80 9 1.0 4.0 0.00 0.00 0.00 100 1017.9
20260905190227 80 19 2.0 6.0 0.00 0.00 0.00 100 1017.9
20260905185228 79 5 3.0 7.0 0.00 0.00 0.00 100 1017.9
20260905184229 79 74 2.0 6.0 0.00 0.00 0.00 100 1017.9
20260905183227 80 3 3.0 4.0 0.00 0.00 0.00 100 1017.9
20260905182228 80 3 2.0 4.0 0.00 0.00 0.00 100 1018.2
20260905181327 81 16 4.0 13.0 0.00 0.00 0.00 100 1017.9
20260905180329 81 356 8.0 14.0 0.00 0.00 0.00 100 1017.5
20260905175328 80 60 1.0 5.0 0.00 0.00 0.00 100 1017.9
20260905174327 79 357 1.0 5.0 0.00 0.00 0.00 100 1017.9
20260905173329 80 35 4.0 8.0 0.00 0.00 0.00 100 1017.9
20260905172328 80 54 1.0 4.0 0.00 0.00 0.00 100 1017.9
20260905171327 80 9 5.0 12.0 0.00 0.00 0.00 100 1017.9
20260905170328 80 360 5.0 9.0 0.00 0.00 0.00 100 1017.9
20260905164327 80 351 5.0 9.0 0.00 0.00 0.00 100 1017.9
20260905163328 81 348 5.0 9.0 0.00 0.00 0.00 100 1017.9
20260905161426 81 94 0.0 1.0 0.00 0.00 0.00 100 1017.9
20260905160428 81 4 5.0 11.0 0.00 0.00 0.00 100 1017.9
20260905155429 81 52 2.0 6.0 0.00 0.00 0.00 100 1017.5
20260905154427 80 11 5.0 10.0 0.00 0.00 0.00 100 1017.5
20260905153429 80 3 6.0 8.0 0.00 0.00 0.00 100 1017.5
20260905152427 81 352 6.0 9.0 0.00 0.00 0.00 100 1017.5
20260905151428 81 20 4.0 7.0 0.00 0.00 0.00 100 1017.2
20260905150426 81 20 3.0 8.0 0.00 0.00 0.00 100 1017.5
20260905145427 79 33 1.0 8.0 0.00 0.00 0.00 100 1017.2
20260905144428 79 16 0.0 3.0 0.00 0.00 0.00 100 1017.2
20260905143427 79 2 5.0 11.0 0.00 0.00 0.00 100 1017.2
20260905142428 79 341 7.0 13.0 0.00 0.00 0.00 100 1017.2
20260905141430 79 45 1.0 5.0 0.00 0.00 0.00 100 1017.2
20260905140528 79 5 7.0 11.0 0.00 0.00 0.00 100 1016.8
20260905135528 78 17 3.0 9.0 0.00 0.00 0.00 100 1016.8
20260905134527 77 19 2.0 6.0 0.00 0.00 0.00 100 1017.2
20260905132528 76 18 3.0 8.0 0.00 0.00 0.00 100 1017.2
20260905131529 76 11 5.0 11.0 0.00 0.00 0.00 100 1017.2
20260905125626 75 351 3.0 5.0 0.00 0.00 0.00 100 1016.8
20260905124627 75 9 2.0 5.0 0.00 0.00 0.00 100 1016.8
20260905123629 75 66 0.0 7.0 0.00 0.00 0.00 100 1016.4
20260905122728 75 340 1.0 4.0 0.00 0.00 0.00 100 1016.4
20260905120727 75 333 2.0 4.0 0.00 0.00 0.00 100 1016.4
20260905115727 75 13 1.0 7.0 0.00 0.00 0.00 100 1016.4
20260905114729 75 35 0.0 3.0 0.00 0.00 0.00 100 1016.1
20260905113726 75 360 0.0 1.0 0.00 0.00 0.00 100 1015.8
20260905112729 75 360 1.0 2.0 0.00 0.00 0.00 100 1015.4
20260905111727 75 360 1.0 4.0 0.00 0.00 0.00 100 1015.4